Date String (YYYY-MM-DD hh:mm:ss) UTC,Instrument flags,absolute air pressure of the measurement (hPa),sample flow rate (lpm),inlet stack bypass flow (lpm),air temperature of the measurement (°C),ambient temperature measured by the external sensor (°C),aerosol sample conditioner tube jacket temperature (°C),OPC LED temperature (°C),internal box temperature (°C),relative humidity of the measurement (%),span deviation,mass concentration of particles derived from Lorenz-Mie calculation of OPC scattering (μg/m³),mass concentration of particles derived from Lorenz-Mie calculation of OPC scattering (μg/m³),mass concentration of particles derived from Lorenz-Mie calculation of OPC scattering (μg/m³)
DateTimeUTC,F1_M11,P_M11,Q1_M11,Q2_M11,T1_M11,T2_M11,T3_M11,T4_M11,T5_M11,U1_M11,ZSPAN_M11,X0_M11,X2_M11,X1_M11
2023-11-27 08:00:00,SystemResetWarning,0832.9,4.99,000.00,018.9,018.2,000.0,027.3,020.0,12.0,0000.0,0006.08,0004.05,0003.88
2023-11-27 08:01:00,SystemResetWarning,0833.0,4.99,000.00,018.8,018.1,000.0,027.3,020.0,12.0,0000.0,0006.00,0004.03,0003.88
2023-11-27 08:02:00,SystemResetWarning,0832.9,5.00,000.00,018.8,018.0,000.0,027.3,020.0,12.0,0000.0,0005.90,0004.01,0003.87
2023-11-27 08:03:00,SystemResetWarning,0833.0,5.00,000.00,018.8,018.0,000.0,027.3,020.0,12.0,0000.0,0006.00,0004.03,0003.87
2023-11-27 08:04:00,SystemResetWarning,0833.0,5.01,000.00,018.8,017.9,000.0,027.3,020.0,12.0,0000.0,0005.96,0004.03,0003.87
2023-11-27 08:05:00,SystemResetWarning,0833.0,5.01,000.00,018.8,017.8,000.0,027.3,020.0,12.1,0000.0,0005.98,0004.04,0003.87
2023-11-27 08:06:00,SystemResetWarning,0833.0,5.01,000.00,018.8,017.8,000.0,027.3,020.0,12.1,0000.0,0006.08,0004.06,0003.88
2023-11-27 08:07:00,SystemResetWarning,0833.0,4.99,000.00,018.8,017.8,000.0,027.3,020.1,12.1,0000.0,0006.14,0004.07,0003.87
2023-11-27 08:08:00,SystemResetWarning,0833.1,5.00,000.00,018.8,018.1,000.0,027.2,020.5,12.0,0000.0,0006.07,0004.06,0003.86
2023-11-27 08:09:00,SystemResetWarning,0833.0,5.01,000.00,019.0,018.9,000.0,027.2,020.8,11.9,0000.0,0005.99,0004.05,0003.86
2023-11-27 08:10:00,SystemResetWarning,0833.0,5.00,000.00,019.0,019.0,000.0,027.2,020.5,11.9,0000.0,0005.90,0004.05,0003.88
2023-11-27 08:11:00,SystemResetWarning,0833.1,4.99,000.00,019.0,018.8,000.0,027.2,020.2,11.9,0000.0,0005.61,0004.06,0003.88
2023-11-27 08:12:00,SystemResetWarning,0833.0,5.00,000.00,018.9,018.6,000.0,027.2,020.1,11.9,0000.0,0006.96,0004.06,0003.88
2023-11-27 08:13:00,SystemResetWarning,0833.0,5.00,000.00,018.9,018.4,000.0,027.2,020.0,12.0,0000.0,0007.43,0004.06,0003.88
2023-11-27 08:14:00,SystemResetWarning,0833.0,5.01,000.00,018.9,018.3,000.0,027.3,020.0,12.0,0000.0,0007.40,0004.04,0003.88
2023-11-27 08:15:00,SystemResetWarning,0833.0,5.01,000.00,018.8,018.2,000.0,027.3,020.0,12.0,0000.0,0007.39,0004.04,0003.88
2023-11-27 08:16:00,SystemResetWarning,0833.1,5.00,000.00,018.8,018.1,000.0,027.3,020.0,12.0,0000.0,0007.40,0004.06,0003.89
2023-11-27 08:17:00,SystemResetWarning,0833.1,5.00,000.00,018.8,018.0,000.0,027.3,020.0,12.0,0000.0,0007.42,0004.07,0003.90
2023-11-27 08:18:00,SystemResetWarning,0833.1,5.00,000.00,018.8,017.9,000.0,027.3,020.0,12.0,0000.0,0007.76,0004.09,0003.92
2023-11-27 08:19:00,SystemResetWarning,0833.1,5.00,000.00,018.8,017.9,000.0,027.3,020.0,12.0,0000.0,0008.11,0004.10,0003.93
2023-11-27 08:20:00,SystemResetWarning,0833.1,4.99,000.00,018.8,017.8,000.0,027.3,020.0,12.0,0000.0,0008.13,0004.11,0003.93
2023-11-27 08:21:00,SystemResetWarning,0833.1,5.00,000.00,018.8,017.8,000.0,027.3,020.0,11.9,0000.0,0008.12,0004.11,0003.92
2023-11-27 08:22:00,SystemResetWarning,0833.1,5.00,000.00,018.8,017.8,000.0,027.3,020.1,11.9,0000.0,0008.13,0004.11,0003.92
2023-11-27 08:23:00,SystemResetWarning,0833.2,5.02,000.00,018.8,018.2,000.0,027.2,020.5,11.9,0000.0,0007.55,0004.12,0003.92
2023-11-27 08:24:00,SystemResetWarning,0833.2,5.00,000.00,019.0,019.0,000.0,027.2,020.9,11.8,0000.0,0007.06,0004.14,0003.94
2023-11-27 08:25:00,SystemResetWarning,0833.2,4.98,000.00,019.0,019.1,000.0,027.2,020.6,11.8,0000.0,0007.06,0004.14,0003.94
2023-11-27 08:26:00,SystemResetWarning,0833.2,5.01,000.00,019.0,018.9,000.0,027.2,020.3,11.8,0000.0,0007.06,0004.14,0003.94
2023-11-27 08:27:00,SystemResetWarning,0833.2,5.01,000.00,019.0,018.7,000.0,027.2,020.1,11.9,0000.0,0007.16,0004.13,0003.94
2023-11-27 08:28:00,SystemResetWarning,0833.1,4.99,000.00,018.9,018.5,000.0,027.2,020.0,11.9,0000.0,0007.58,0004.13,0003.93
2023-11-27 08:29:00,SystemResetWarning,0833.2,4.99,000.00,018.9,018.4,000.0,027.2,020.0,11.9,0000.0,0007.34,0004.10,0003.92
2023-11-27 08:30:00,SystemResetWarning,0833.1,5.00,000.00,018.9,018.2,000.0,027.3,020.0,12.0,0000.0,0006.68,0004.09,0003.92
2023-11-27 08:31:00,SystemResetWarning,0833.1,5.01,000.00,018.8,018.1,000.0,027.3,020.0,12.0,0000.0,0007.10,0004.07,0003.92
2023-11-27 08:32:00,SystemResetWarning,0833.2,5.01,000.00,018.8,018.0,000.0,027.3,020.0,12.0,0000.0,0007.57,0004.06,0003.91
2023-11-27 08:33:00,SystemResetWarning,0833.1,5.00,000.00,018.8,018.0,000.0,027.3,020.0,12.0,0000.0,0007.61,0004.07,0003.90
2023-11-27 08:34:00,SystemResetWarning,0833.0,4.98,000.00,018.8,017.9,000.0,027.3,020.0,12.0,0000.0,0007.66,0004.09,0003.92
2023-11-27 08:35:00,SystemResetWarning,0833.1,4.99,000.00,018.8,017.8,000.0,027.3,020.0,12.0,0000.0,0007.64,0004.08,0003.92
2023-11-27 08:36:00,SystemResetWarning,0833.0,5.00,000.00,018.8,017.8,000.0,027.3,020.0,12.0,0000.0,0007.60,0004.08,0003.91
2023-11-27 08:37:00,SystemResetWarning,0833.1,5.00,000.00,018.8,017.8,000.0,027.3,020.1,12.0,0000.0,0007.64,0004.10,0003.92
2023-11-27 08:38:00,SystemResetWarning,0833.4,5.01,000.00,018.8,018.3,000.0,027.2,020.6,11.9,0000.0,0007.65,0004.13,0003.93
2023-11-27 08:39:00,SystemResetWarning,0833.1,5.00,000.00,019.0,019.0,000.0,027.2,020.9,11.8,0000.0,0007.32,0004.14,0003.93
2023-11-27 08:40:00,SystemResetWarning,0833.1,4.98,000.00,019.1,019.1,000.0,027.2,020.5,11.8,0000.0,0007.17,0004.14,0003.93
2023-11-27 08:41:00,SystemResetWarning,0833.4,4.99,000.00,019.0,018.9,000.0,027.2,020.2,11.8,0000.0,0007.09,0004.12,0003.92
2023-11-27 08:42:00,SystemResetWarning,0833.3,5.01,000.00,019.0,018.7,000.0,027.2,020.1,11.8,0000.0,0006.61,0004.12,0003.91
2023-11-27 08:43:00,SystemResetWarning,0833.0,5.01,000.00,018.9,018.5,000.0,027.2,020.0,11.8,0000.0,0006.02,0004.15,0003.92
2023-11-27 08:44:00,SystemResetWarning,0833.0,4.99,000.00,018.9,018.4,000.0,027.2,020.0,11.8,0000.0,0005.93,0004.15,0003.93
2023-11-27 08:45:00,SystemResetWarning,0833.0,4.99,000.00,018.9,018.2,000.0,027.3,020.0,11.9,0000.0,0005.76,0004.11,0003.92
2023-11-27 08:46:00,SystemResetWarning,0833.0,5.01,000.00,018.8,018.1,000.0,027.3,020.0,11.9,0000.0,0005.79,0004.11,0003.91
2023-11-27 08:47:00,SystemResetWarning,0833.1,5.01,000.00,018.8,018.0,000.0,027.3,020.0,11.9,0000.0,0005.80,0004.11,0003.91
2023-11-27 08:48:00,SystemResetWarning,0833.1,5.00,000.00,018.8,018.0,000.0,027.3,020.0,11.9,0000.0,0005.90,0004.10,0003.90
2023-11-27 08:49:00,SystemResetWarning,0833.1,5.00,000.00,018.8,017.9,000.0,027.3,020.0,11.9,0000.0,0005.89,0004.08,0003.89
2023-11-27 08:50:00,SystemResetWarning,0833.1,4.99,000.00,018.8,017.8,000.0,027.3,020.0,11.9,0000.0,0005.80,0004.08,0003.88
2023-11-27 08:51:00,SystemResetWarning,0833.2,4.99,000.00,018.8,017.8,000.0,027.3,020.0,11.9,0000.0,0006.14,0004.10,0003.89
2023-11-27 08:52:00,SystemResetWarning,0833.2,5.00,000.00,018.8,018.0,000.0,027.2,020.3,11.9,0000.0,0006.97,0004.12,0003.89
2023-11-27 08:53:00,SystemResetWarning,0833.2,5.02,000.00,018.9,018.7,000.0,027.2,020.8,11.9,0000.0,0007.21,0004.13,0003.90
2023-11-27 08:54:00,SystemResetWarning,0833.2,4.98,000.00,019.1,019.1,000.0,027.2,020.7,11.8,0000.0,0007.36,0004.11,0003.89
2023-11-27 08:55:00,SystemResetWarning,0833.2,5.00,000.00,019.0,018.9,000.0,027.2,020.3,11.8,0000.0,0007.38,0004.10,0003.87
2023-11-27 08:56:00,SystemResetWarning,0833.2,5.01,000.00,019.0,018.7,000.0,027.2,020.1,11.9,0000.0,0007.36,0004.09,0003.86
2023-11-27 08:57:00,SystemResetWarning,0833.2,5.01,000.00,018.9,018.5,000.0,027.2,020.0,11.9,0000.0,0007.39,0004.10,0003.86
2023-11-27 08:58:00,SystemResetWarning,0833.2,5.00,000.00,018.9,018.4,000.0,027.2,020.0,11.9,0000.0,0007.43,0004.10,0003.85
2023-11-27 08:59:00,SystemResetWarning,0833.2,4.99,000.00,018.9,018.3,000.0,027.3,020.0,12.0,0000.0,0007.40,0004.09,0003.85
